Temperature
8 7 6 7 7 8 8 8 8 8 9 9 8 8 9 9 9 9 9 9 9 9 10 10 10 10 10 10 10 10 10 10 10 11 11 11 11 11 11 11 11 11 11 11
7 7 8 8 8 8 8 8 8 8 9 9 8 9 9 9 9 9 9 9 9 9 9 9 10 10 10 10 10 10 10 10 10 10 10 10 10 10 10 10 10 10 10 10
8 8 9 9 8 8 8 8 8 8 8 9 9 8 9 9 9 10 10 9 9 10 10 9 10 10 10 10 10 10 10 10 10 10 10 10 10 10 10 10 10 10 10 10
8 9 9 9 8 8 8 9 9 8 8 7 8 7 8 8 9 9 9 9 9 9 10 9 10 10 10 10 10 10 10 10 10 10 10 10 10 10 10 10 10 10 9 9
8 9 9 8 9 8 8 8 8 8 8 7 7 7 7 8 8 8 8 9 10 10 10 9 10 10 10 9 9 10 10 10 9 9 9 9 9 10 10 9 9 9 9 9
8 9 9 9 9 8 8 8 8 7 7 7 7 7 7 7 8 9 9 9 10 10 10 9 10 10 9 9 9 9 9 9 9 9 9 9 9 9 9 9 9 9 9 9
8 8 9 9 8 8 8 7 7 7 6 7 7 7 7 8 8 9 9 9 10 10 10 9 9 9 9 9 9 9 9 9 9 9 9 9 9 9 9 9 9 9 9 9
7 7 8 8 8 8 7 7 7 8 7 6 7 7 8 9 9 9 10 10 10 10 10 10 10 9 9 9 9 9 9 9 9 9 9 9 9 8 8 8 8 8 8 8
7 7 8 8 8 8 8 7 7 6 6 6 7 7 8 9 8 8 8 9 9 9 9 9 9 9 9 9 9 9 9 9 9 9 9 9 8 8 8 8 8 8 8 8
7 7 7 8 8 8 8 7 6 6 7 7 7 7 7 8 8 8 7 8 9 9 9 9 9 9 9 9 9 9 9 8 9 9 8 8 8 8 8 8 8 7 7 7
7 7 7 7 8 8 8 8 7 6 6 7 7 8 8 8 8 7 7 9 9 9 9 9 9 9 9 9 9 9 9 8 8 8 8 8 8 8 8 7 7 7 7 7
6 6 5 6 7 8 8 8 7 7 7 6 6 7 8 7 8 8 8 9 9 9 9 9 9 9 9 9 9 8 8 8 8 8 8 8 7 7 7 7 7 7 7 6
6 6 6 7 8 7 7 7 7 6 5 5 5 7 8 7 8 8 9 9 9 9 9 9 9 9 9 9 8 8 8 8 8 8 7 7 7 7 7 7 7 6 6 6
6 5 6 7 7 7 6 7 7 6 5 5 5 6 7 7 7 8 9 9 9 9 9 9 8 8 8 8 8 8 8 8 8 7 7 7 7 7 7 6 6 6 6 6
5 5 5 5 6 6 6 6 6 6 5 5 6 6 7 7 7 8 8 9 8 8 8 8 8 8 8 8 8 8 7 7 7 7 7 7 7 6 6 6 6 5 5 5
4 4 5 4 6 5 5 5 5 6 6 6 6 6 7 8 8 7 8 8 8 8 8 8 8 8 7 7 7 7 7 7 7 6 6 6 6 6 6 6 5 5 5 5
4 4 4 4 4 5 5 6 6 5 5 5 6 7 6 6 6 7 7 7 8 8 8 8 7 7 7 7 7 7 7 6 6 6 6 6 6 5 5 5 5 5 5 4
4 4 3 3 4 5 7 7 6 6 6 5 6 6 6 6 7 7 8 7 7 7 7 7 7 7 7 7 7 6 6 6 6 6 6 5 5 5 5 5 4 4 4 4
4 4 3 3 4 4 6 6 6 6 6 6 5 5 6 6 6 6 7 7 7 7 7 7 7 7 7 6 6 6 6 6 6 5 5 5 5 5 4 4 4 4 4 4
3 3 3 3 4 6 7 7 7 7 6 6 5 5 5 5 4 5 7 7 7 7 7 7 6 6 6 6 6 6 6 5 5 5 5 4 4 4 4 4 4 3 3 3
2 2 2 3 3 4 5 6 6 6 6 7 6 6 6 5 5 7 7 6 6 6 6 6 6 6 6 5 5 5 5 5 5 4 4 4 4 4 3 3 3 3 3 3
3 2 2 2 3 4 5 5 5 6 7 7 7 7 6 6 6 6 6 6 6 6 6 5 5 5 5 5 5 5 4 4 4 4 4 3 3 3 3 3 3 3 2 2
3 3 3 3 5 6 6 6 7 7 7 7 6 6 6 6 5 5 5 5 5 5 5 5 5 5 5 4 4 4 4 4 3 3 3 3 3 3 2 2 2 2 2 2
2 3 2 2 3 5 6 6 6 6 6 6 6 6 5 5 5 5 5 5 4 4 4 4 4 4 4 4 3 3 3 3 3 3 3 2 2 2 2 2 2 1 1 1
2 2 2 2 3 4 5 6 6 6 6 5 5 5 5 5 4 4 4 4 4 4 4 4 4 3 3 3 3 3 2 2 2 2 2 2 2 2 1 1 1 1 1 1
2 2 2 3 4 3 4 5 5 5 5 4 4 4 4 4 4 4 3 3 3 3 3 3 3 3 3 2 2 2 2 2 2 2 2 2 1 1 1 1 0 0 0 0
Wind_Speed
1 3 2 5 5 5 4 4 6 6 4 2 4 5 5 3 3 3 4 5 5 4 4 5 6 6 6 5 5 6 6 5 5 4 4 3 3 2 3 4 5 6 6 6
3 3 6 5 4 4 3 4 5 6 3 2 3 5 4 3 3 4 6 6 7 6 5 5 6 6 6 6 5 5 6 5 5 3 3 3 3 2 2 2 4 5 5 5
2 5 4 2 2 4 3 3 4 5 5 2 1 5 3 2 1 2 4 5 6 8 8 7 7 6 6 6 6 6 5 5 5 5 4 4 3 3 2 2 1 2 4 4
3 4 3 3 2 1 4 4 4 4 3 3 1 2 5 3 1 2 4 4 5 6 6 6 6 6 6 5 5 5 5 5 5 5 5 5 3 2 2 2 1 1 3 3
4 2 2 3 4 2 5 4 3 2 0 3 2 1 6 2 3 5 5 6 6 7 8 8 7 7 6 5 5 5 5 5 5 5 5 5 3 2 2 1 2 1 1 2
4 3 2 3 4 2 4 3 2 3 3 2 3 2 5 3 5 5 6 6 7 7 7 7 6 6 5 5 4 5 5 4 4 5 5 5 5 4 3 2 1 1 0 0
6 4 3 1 3 4 4 4 4 5 3 4 3 1 6 6 5 6 7 8 7 8 7 7 7 7 6 7 6 6 6 5 4 5 4 5 5 5 5 4 3 2 1 1
4 7 4 1 1 2 2 3 3 1 3 5 3 3 6 6 4 3 5 6 7 7 7 8 8 8 7 7 7 7 7 5 5 5 5 4 5 4 3 4 4 4 3 3
1 6 4 2 2 2 1 0 3 3 1 3 5 6 6 3 3 1 2 4 6 7 7 7 7 7 7 7 7 8 7 6 6 6 5 4 4 4 4 3 3 3 3 2
3 5 5 3 1 1 2 2 3 2 1 3 5 5 4 5 4 2 2 4 5 5 6 6 6 6 6 6 6 6 6 6 5 5 4 4 4 4 4 3 4 3 3 3
2 3 5 3 2 3 0 0 2 2 3 2 3 6 4 5 4 5 6 5 6 6 6 6 6 5 5 4 5 5 5 5 4 5 4 4 4 4 4 3 4 3 3 3
1 2 4 6 4 2 3 3 4 2 2 3 3 6 5 3 2 3 4 4 5 6 5 6 6 5 5 5 4 5 5 5 5 5 4 4 4 3 4 4 4 3 4 3
2 2 3 6 3 2 2 2 3 3 2 3 3 7 3 2 1 1 3 3 3 4 4 4 4 5 5 5 5 5 5 6 5 5 5 4 4 4 4 4 4 4 4 3
3 3 6 7 6 3 5 5 4 4 3 5 8 9 8 5 4 3 3 3 3 4 4 5 5 5 5 5 5 5 5 5 5 5 5 5 5 5 5 4 4 4 4 4
4 4 6 8 8 6 8 9 7 9 9 9 9 8 11 9 7 5 4 3 3 3 3 5 5 5 4 4 4 4 5 4 4 5 5 6 5 4 4 4 4 4 4 4
2 3 3 6 6 6 9 11 10 10 9 10 10 11 10 7 3 3 3 4 4 4 4 5 5 5 5 6 5 5 5 5 4 5 6 5 4 4 4 4 4 4 4 4
3 3 1 5 6 6 8 9 9 6 7 7 10 10 6 3 3 4 4 4 4 5 4 5 5 6 6 6 6 6 6 5 5 5 5 5 5 5 5 4 4 4 5 4
6 5 3 3 3 6 7 2 6 6 5 7 6 5 4 4 3 2 3 3 4 4 4 4 4 5 5 4 5 4 4 4 5 5 5 5 5 5 5 4 5 5 4 4
7 7 3 2 4 9 8 4 3 5 4 5 6 5 3 2 1 3 2 3 4 5 4 4 5 5 4 4 4 3 3 4 5 5 6 6 6 6 5 5 6 5 4 5
3 5 4 4 4 7 6 2 1 2 4 4 3 4 2 2 0 5 4 3 3 3 3 3 3 3 3 4 3 4 4 4 6 6 6 5 5 6 6 6 6 4 4 5
4 4 7 7 7 9 7 2 3 3 5 3 3 4 4 5 6 5 4 3 3 3 3 2 2 3 4 4 3 4 4 6 6 5 5 5 5 6 6 5 4 4 4 4
8 7 7 6 7 9 3 4 5 6 3 2 3 4 4 5 5 5 4 4 4 3 3 2 3 4 3 3 4 5 6 6 4 4 4 5 5 5 4 5 4 4 4 4
7 8 6 9 9 4 4 7 6 3 4 4 4 5 5 5 5 5 5 5 4 4 4 3 3 4 3 3 4 6 6 4 4 4 5 5 5 4 4 5 5 4 4 4
5 4 4 6 9 7 6 5 5 5 6 6 6 6 5 6 7 6 6 5 5 5 5 3 3 4 5 4 5 6 5 4 4 5 5 4 4 5 4 4 4 4 5 5
6 4 4 8 8 7 6 5 6 7 6 6 6 6 6 7 7 7 7 6 6 5 4 4 4 5 6 5 5 5 5 4 5 5 5 4 5 5 4 4 4 5 6 6
6 7 7 9 7 6 8 7 6 7 7 7 6 7 7 7 7 7 7 6 6 6 4 4 5 6 6 5 6 5 5 5 5 5 5 4 4 4 4 4 4 6 7 8
Wind_Direction
51 51 310 273 245 243 267 279 287 278 277 288 258 263 269 248 213 201 179 181 177 164 144 132 141 136 130 125 129 135 129 131 127 119 115 107 99 86 75 82 90 92 90 89
27 304 265 266 271 276 266 286 295 294 301 275 272 282 275 228 217 204 188 184 177 160 146 145 151 147 146 145 145 143 142 140 138 131 124 116 122 109 92 80 77 83 84 85
219 262 284 291 315 326 288 244 279 291 320 331 337 324 311 284 216 194 181 179 176 169 168 168 161 155 152 156 160 156 150 143 136 126 110 100 84 71 66 65 59 67 86 87
274 283 314 317 300 289 283 255 264 293 350 315 36 297 296 264 248 230 203 188 181 171 167 169 164 162 166 170 164 151 150 145 136 129 133 138 140 150 181 172 155 90 94 96
284 283 305 295 284 256 256 284 278 266 288 330 347 184 291 284 242 239 222 201 192 177 173 176 175 172 169 168 166 156 148 144 136 135 143 138 133 146 142 125 125 111 83 105
263 266 238 257 285 262 284 339 8 45 67 334 283 181 290 256 233 230 217 207 193 183 178 175 165 156 157 159 162 156 152 153 147 144 144 149 153 154 143 150 159 166 190 85
327 311 299 328 336 348 30 52 24 6 6 274 298 209 261 265 246 218 203 199 190 185 181 175 169 173 173 173 171 167 161 166 163 157 162 169 172 172 175 184 190 189 195 216
334 306 286 280 196 287 315 121 139 213 267 293 322 255 265 284 281 241 198 183 176 179 182 184 183 185 186 183 177 173 171 175 176 175 181 180 180 180 189 195 194 200 206 212
238 279 297 268 223 171 347 237 178 149 261 283 288 289 302 317 339 24 151 164 180 183 183 183 181 182 183 183 185 183 179 182 186 185 182 184 189 188 193 198 197 202 210 209
186 273 288 299 356 303 188 173 86 108 328 299 297 288 274 282 273 251 202 195 196 186 186 184 180 183 184 188 186 181 181 188 187 183 187 194 199 198 194 190 200 205 210 203
168 226 301 331 230 235 228 159 134 150 170 185 294 286 245 242 239 220 220 213 200 192 190 190 191 187 184 183 181 182 185 185 185 190 196 196 202 199 191 195 207 211 215 209
156 153 270 267 261 238 191 193 152 163 253 196 214 270 288 248 229 207 215 216 207 200 196 193 191 185 184 186 188 192 193 195 199 195 192 202 203 195 198 210 217 213 217 216
139 131 326 335 333 344 266 236 185 157 160 193 205 262 312 357 347 247 217 218 208 201 200 197 191 190 194 197 199 201 202 204 199 189 192 201 204 203 213 220 220 216 216 220
127 177 198 225 244 240 261 254 213 170 203 236 232 253 287 286 273 270 255 231 217 207 197 195 202 205 203 203 203 205 213 209 197 190 195 205 210 211 215 217 216 216 213 215
129 226 244 256 265 253 250 253 231 213 212 223 246 245 264 266 248 242 238 226 213 215 212 207 209 212 212 212 215 213 214 210 198 196 207 217 216 209 208 212 217 218 218 223
155 223 273 282 273 271 264 255 240 232 228 237 256 268 263 270 253 240 236 214 214 226 225 221 213 210 213 213 215 214 217 215 200 204 216 219 209 207 212 218 219 221 226 229
193 182 243 275 305 322 275 242 216 214 214 205 230 247 272 273 242 236 234 220 228 235 231 220 216 215 217 217 211 211 217 209 201 211 218 216 211 215 222 220 217 226 229 228
174 165 197 276 344 253 251 241 195 201 236 222 233 259 260 244 245 240 218 214 237 240 234 232 226 225 225 218 214 212 208 203 207 217 224 221 213 218 222 219 225 230 226 228
178 167 186 212 260 276 289 267 197 195 261 235 232 256 279 298 15 316 265 231 230 232 232 233 228 223 220 216 209 198 210 210 215 226 229 225 216 218 221 225 232 229 225 233
145 153 175 194 227 250 256 271 245 119 281 267 206 229 242 106 308 271 270 257 260 259 248 241 233 217 219 225 199 194 216 219 228 230 232 228 219 218 224 229 232 228 225 233
149 177 201 209 232 261 260 252 107 176 253 277 209 219 205 200 225 246 256 254 254 259 262 249 229 229 234 222 197 217 228 232 235 233 232 230 223 223 226 228 229 230 230 233
182 185 198 190 217 250 228 141 182 224 262 264 250 234 230 238 250 255 252 253 258 264 265 251 237 251 248 216 202 228 244 246 238 230 234 237 234 231 227 224 232 228 220 229
201 197 194 200 221 248 197 208 227 227 248 257 252 251 241 247 255 257 253 253 255 253 253 242 232 253 263 234 211 229 247 247 237 230 235 241 240 237 228 221 225 229 221 225
249 212 204 245 261 264 259 252 259 249 250 260 258 252 245 251 258 262 261 257 253 251 250 242 235 248 260 253 237 237 246 239 230 234 238 237 236 241 235 226 218 219 224 229
235 206 228 253 273 292 276 260 262 268 265 269 266 258 250 249 256 255 256 252 248 250 248 237 234 243 251 253 251 249 239 227 229 236 237 235 232 233 237 234 227 225 227 221
215 216 227 252 253 254 270 274 273 270 267 262 258 264 258 242 248 251 252 249 247 249 247 248 247 248 253 254 257 256 238 223 224 237 238 236 233 232 231 238 261 251 243 250
Height
1520 1523 1523 1520 1518 1516 1515 1514 1513 1507 1501 1501 1500 1497 1494 1491 1492 1492 1493 1493 1494 1495 1496 1497 1499 1501 1503 1505 1507 1509 1510 1512 1514 1515 1516 1517 1519 1521 1522 1523 1524 1525 1525 1526
1523 1523 1518 1515 1514 1514 1513 1513 1512 1506 1501 1501 1499 1496 1492 1491 1491 1490 1491 1492 1493 1494 1496 1497 1500 1501 1503 1505 1507 1509 1510 1512 1514 1515 1516 1517 1519 1520 1521 1522 1523 1524 1524 1525
1522 1520 1515 1514 1514 1513 1511 1512 1510 1508 1503 1500 1500 1499 1494 1491 1490 1490 1491 1492 1492 1494 1495 1497 1498 1500 1502 1505 1507 1508 1510 1512 1513 1515 1516 1517 1519 1520 1521 1521 1522 1522 1523 1524
1520 1516 1515 1514 1513 1513 1512 1507 1506 1505 1508 1509 1505 1508 1497 1492 1491 1490 1490 1491 1492 1493 1495 1496 1497 1499 1501 1504 1506 1507 1509 1511 1512 1514 1516 1517 1518 1519 1520 1521 1521 1521 1522 1522
1519 1516 1515 1514 1512 1511 1509 1506 1506 1505 1507 1509 1507 1509 1502 1494 1493 1490 1489 1489 1490 1492 1494 1496 1497 1498 1500 1503 1504 1506 1509 1510 1512 1513 1515 1516 1517 1518 1519 1519 1520 1520 1520 1521
1517 1514 1513 1512 1510 1509 1507 1506 1506 1509 1511 1513 1508 1510 1503 1496 1490 1487 1487 1487 1489 1491 1493 1495 1496 1498 1500 1502 1503 1505 1507 1509 1511 1512 1514 1515 1516 1517 1517 1518 1518 1518 1519 1519
1520 1515 1512 1511 1511 1509 1510 1514 1520 1517 1520 1515 1508 1508 1502 1489 1486 1484 1484 1485 1487 1490 1492 1494 1495 1497 1499 1501 1502 1504 1506 1508 1510 1511 1513 1514 1515 1515 1516 1517 1517 1517 1517 1517
1526 1523 1513 1511 1512 1513 1512 1514 1522 1521 1520 1518 1510 1508 1496 1486 1483 1482 1482 1484 1486 1488 1490 1492 1494 1496 1498 1499 1501 1503 1505 1507 1508 1510 1511 1512 1513 1514 1514 1515 1515 1515 1515 1515
1526 1522 1513 1510 1510 1511 1511 1515 1514 1521 1520 1520 1512 1503 1492 1485 1484 1483 1482 1483 1485 1486 1488 1490 1492 1495 1496 1498 1500 1502 1504 1505 1507 1508 1509 1510 1511 1512 1512 1512 1512 1513 1513 1513
1521 1523 1515 1512 1510 1510 1511 1512 1519 1519 1517 1515 1510 1505 1500 1489 1486 1485 1484 1484 1484 1486 1488 1489 1491 1493 1494 1496 1498 1500 1502 1504 1505 1506 1507 1508 1509 1509 1509 1510 1510 1510 1510 1510
1520 1523 1519 1514 1512 1511 1512 1512 1515 1519 1519 1518 1514 1505 1490 1487 1484 1484 1484 1484 1484 1485 1486 1488 1490 1491 1493 1495 1496 1498 1499 1501 1502 1503 1504 1505 1506 1506 1506 1506 1506 1507 1507 1507
1520 1524 1524 1516 1510 1508 1509 1509 1513 1517 1516 1519 1520 1508 1485 1484 1482 1482 1482 1483 1484 1485 1486 1487 1488 1490 1491 1493 1494 1495 1497 1498 1500 1501 1502 1502 1502 1502 1503 1503 1503 1503 1504 1504
1519 1523 1523 1515 1514 1512 1510 1508 1509 1513 1517 1520 1517 1503 1485 1483 1483 1482 1482 1482 1483 1484 1485 1486 1487 1488 1489 1490 1492 1493 1494 1495 1497 1498 1498 1499 1499 1499 1499 1499 1499 1500 1500 1500
1517 1521 1523 1518 1511 1510 1510 1508 1507 1511 1517 1515 1507 1497 1487 1484 1483 1482 1482 1482 1482 1483 1483 1484 1485 1486 1487 1488 1489 1490 1492 1493 1494 1494 1495 1495 1495 1495 1495 1495 1495 1496 1496 1496
1516 1520 1518 1514 1510 1510 1507 1505 1504 1506 1505 1506 1496 1494 1485 1482 1482 1481 1481 1481 1481 1481 1481 1482 1483 1484 1485 1486 1487 1488 1489 1490 1490 1490 1491 1491 1491 1491 1491 1491 1491 1491 1492 1492
1516 1518 1516 1513 1507 1507 1504 1499 1499 1498 1497 1496 1492 1489 1480 1479 1479 1479 1479 1479 1479 1479 1479 1480 1480 1481 1482 1483 1484 1484 1485 1486 1486 1486 1486 1487 1487 1487 1487 1487 1487 1487 1487 1487
1516 1517 1517 1515 1509 1505 1500 1490 1490 1491 1489 1489 1488 1483 1478 1478 1477 1477 1477 1477 1477 1477 1477 1477 1478 1478 1479 1480 1481 1481 1481 1482 1482 1482 1482 1482 1482 1482 1482 1482 1482 1482 1482 1483
1513 1515 1517 1517 1512 1507 1488 1482 1482 1484 1484 1483 1480 1478 1477 1476 1476 1476 1475 1475 1475 1475 1475 1475 1476 1476 1476 1477 1477 1477 1478 1478 1477 1477 1478 1478 1478 1478 1478 1478 1478 1478 1478 1477
1506 1511 1516 1516 1513 1501 1486 1480 1480 1482 1481 1478 1477 1476 1475 1474 1475 1474 1474 1474 1473 1473 1473 1473 1473 1473 1473 1473 1473 1474 1474 1473 1473 1473 1473 1473 1473 1473 1473 1473 1473 1473 1473 1472
1505 1507 1513 1513 1508 1496 1482 1478 1477 1479 1481 1475 1474 1474 1474 1474 1477 1474 1472 1471 1471 1471 1471 1470 1470 1470 1470 1470 1470 1470 1469 1469 1469 1469 1469 1469 1469 1469 1468 1468 1468 1468 1467 1467
1506 1508 1509 1509 1505 1492 1480 1477 1477 1484 1479 1473 1472 1472 1472 1472 1472 1470 1469 1469 1469 1468 1468 1467 1467 1466 1466 1466 1466 1465 1465 1465 1465 1465 1464 1464 1464 1464 1464 1463 1463 1463 1462 1462
1497 1502 1503 1503 1502 1491 1476 1476 1478 1475 1472 1471 1470 1470 1470 1468 1468 1467 1466 1466 1465 1465 1464 1464 1463 1462 1462 1462 1461 1461 1460 1460 1460 1459 1459 1459 1459 1459 1458 1458 1458 1458 1457 1457
1489 1487 1487 1488 1482 1474 1472 1471 1470 1470 1470 1469 1468 1467 1467 1465 1464 1463 1463 1462 1461 1461 1460 1460 1459 1458 1458 1458 1457 1456 1456 1456 1455 1454 1454 1454 1454 1454 1453 1453 1453 1453 1452 1452
1483 1481 1482 1480 1473 1470 1469 1468 1468 1468 1467 1466 1465 1464 1463 1461 1460 1459 1459 1458 1457 1457 1456 1455 1454 1454 1453 1453 1452 1452 1452 1451 1450 1449 1449 1449 1448 1448 1448 1448 1448 1447 1447 1446
1478 1478 1478 1475 1470 1467 1465 1465 1465 1464 1463 1461 1460 1459 1458 1457 1455 1455 1454 1453 1452 1452 1451 1450 1450 1449 1448 1448 1447 1447 1446 1446 1445 1444 1444 1443 1443 1443 1442 1442 1442 1442 1442 1441
1472 1473 1474 1469 1465 1465 1462 1461 1460 1459 1457 1456 1455 1453 1452 1451 1450 1449 1448 1448 1447 1446 1446 1445 1444 1443 1443 1442 1441 1441 1441 1440 1439 1438 1438 1437 1437 1437 1437 1436 1436 1436 1436 1435